(167963) = 2005 EM268

Discovered at Mount Lemmon on 2005-03-14 by Mt. Lemmon Survey.

Orbit

Orbit type: Main Belt

Note: WebGL enabled browser required.

epoch2023-09-13.0
epoch JD2460200.5
perihelion date2021-04-29.76413
perihelion JD2459334.26413
argument of perihelion (°)214.67535
ascending node (°)222.60865
inclination (°)3.70935
eccentricity0.1800726
perihelion distance (AU)2.1701327
Tisserand w.r.t. Jupiter3.4
ΔV w.r.t. Earth (km/sec)9.3
semimajor axis (AU)2.6467375
mean anomaly (°)198.27762
mean daily motion (°/day)0.22889560
aphelion distance (AU)3.123
period (years)4.31
P-vector [x]0.22092534
P-vector [y]0.90881518
P-vector [z]0.35390248
Q-vector [x]-0.97430680
Q-vector [y]0.22195494
Q-vector [z]0.03823948
absolute magnitude16.65
phase slope0.15
uncertainty0
referenceMPEC 2023-X132
observations used453
oppositions14
arc length (days)10478
first opposition used1994
last opposition used2023
residual rms (arc-secs)0.75
perturbers coarse indicatorM-v
perturbers precise indicator003Ek
first observation date used1994-10-09.0
last observation date used2023-06-17.0
computer nameMPCLINUX
JD of orbit computation2456819.539313
perihelion JD uncertainty (days)8.5058E-05
argument of perihelion uncertainty (°)9.3513E-05
ascending node uncertainty (°)9.1681E-05
inclination uncertainty (°)5.7294E-06
eccentricity uncertainty 5.5562E-08
perihelion distance uncertainty (AU)1.4000E-07
Minimum Orbit Intersection Distances (in AU)
for orbit epoch: 2460200.5, reference: E2023-XD2
Mercury1.8642
Venus1.45029
Earth1.18541
Mars0.61861
Jupiter2.14346
Saturn6.8527
Uranus15.7194
Neptune27.2866

Observations

465 total observations over interval: 1994 10 09.12536 – 2023 06 17.392057
These data are available for download (format description).

Date (UT) J2000 RA J2000 Dec Magn Location Ref
1994 10 09.12536 23 17 04.32 -00 12 02.3   691 – Steward Observatory, Kitt Peak-Spacewatch MPS 175726
1994 10 09.15009 23 17 03.38 -00 12 09.9 20.2 V 691 – Steward Observatory, Kitt Peak-Spacewatch MPS 175726
1994 10 09.17463 23 17 02.47 -00 12 19.0   691 – Steward Observatory, Kitt Peak-Spacewatch MPS 175726
2003 10 28.27063 03 32 59.31 +18 45 23.9 19.2   704 – Lincoln Laboratory ETS, New Mexico MPS 162814
2003 10 28.28300 03 32 58.74 +18 45 20.8 19.7   704 – Lincoln Laboratory ETS, New Mexico MPS 162814
2003 10 28.29538 03 32 58.23 +18 45 18.0 19.6   704 – Lincoln Laboratory ETS, New Mexico MPS 162814
2003 10 28.30791 03 32 57.67 +18 45 13.8 19.7   704 – Lincoln Laboratory ETS, New Mexico MPS 162814
2003 11 02.30968 03 29 15.95 +18 20 32.7 19.2   704 – Lincoln Laboratory ETS, New Mexico MPS 162814
2003 11 02.32161 03 29 15.35 +18 20 27.2 19.1   704 – Lincoln Laboratory ETS, New Mexico MPS 162814
2003 11 02.33378 03 29 14.71 +18 20 24.7 19.7   704 – Lincoln Laboratory ETS, New Mexico MPS 162814
2003 11 02.34580 03 29 14.18 +18 20 22.0 19.7   704 – Lincoln Laboratory ETS, New Mexico MPS 162814
2003 11 02.35790 03 29 13.50 +18 20 17.5 19.4   704 – Lincoln Laboratory ETS, New Mexico MPS 162814
2003 11 16.36150 03 17 07.16 +17 02 26.2 19.2 V 691 – Steward Observatory, Kitt Peak-Spacewatch MPS 162814
2003 11 16.38918 03 17 05.61 +17 02 16.5 19.1 V 691 – Steward Observatory, Kitt Peak-Spacewatch MPS 162814
2003 11 16.41726 03 17 04.04 +17 02 06.7 19.3 V 691 – Steward Observatory, Kitt Peak-Spacewatch MPS 162814
2003 11 21.26112 03 12 47.02 +16 34 29.8 19.8   704 – Lincoln Laboratory ETS, New Mexico MPS 162814
2003 11 21.27406 03 12 46.33 +16 34 24.3 19.9   704 – Lincoln Laboratory ETS, New Mexico MPS 162814
2003 11 21.28678 03 12 45.54 +16 34 20.4 20.0   704 – Lincoln Laboratory ETS, New Mexico MPS 162814
2003 11 21.29977 03 12 45.04 +16 34 16.0 19.9   704 – Lincoln Laboratory ETS, New Mexico MPS 162814
2003 11 21.31271 03 12 44.25 +16 34 10.9 19.9   704 – Lincoln Laboratory ETS, New Mexico MPS 162814
2003 12 01.22173 03 04 49.98 +15 41 41.7 20.0   704 – Lincoln Laboratory ETS, New Mexico MPS 162814
2003 12 01.23482 03 04 49.42 +15 41 37.8 20.2   704 – Lincoln Laboratory ETS, New Mexico MPS 162814
2003 12 01.24759 03 04 48.90 +15 41 34.8 20.0   704 – Lincoln Laboratory ETS, New Mexico MPS 162814
2003 12 01.26059 03 04 48.57 +15 41 33.0 20.2   704 – Lincoln Laboratory ETS, New Mexico MPS 162814
2005 03 14.38534 13 04 02.30 -10 06 37.0 20.5 R G96 – Mt. Lemmon Survey MPS 129388
2005 03 14.39081 13 04 02.03 -10 06 35.1 20.3 R G96 – Mt. Lemmon Survey MPS 129388
2005 03 14.39622 13 04 01.80 -10 06 33.7 20.2 R G96 – Mt. Lemmon Survey MPS 129388
2005 03 14.40172 13 04 01.58 -10 06 32.1 19.9 R G96 – Mt. Lemmon Survey MPS 129388
2005 03 17.39913 13 01 52.50 -09 51 37.8 20.8 V 691 – Steward Observatory, Kitt Peak-Spacewatch MPS 129388
2005 03 17.42834 13 01 51.16 -09 51 28.6 20.6 V 691 – Steward Observatory, Kitt Peak-Spacewatch MPS 129388
2005 03 17.45393 13 01 50.00 -09 51 20.3 21.1 V 691 – Steward Observatory, Kitt Peak-Spacewatch MPS 129388
2005 05 02.14381 12 27 55.70 -05 19 36.4 21.1 V 691 – Steward Observatory, Kitt Peak-Spacewatch MPS 162814
2005 05 02.15975 12 27 55.24 -05 19 32.0 21.1 V 691 – Steward Observatory, Kitt Peak-Spacewatch MPS 162814
2005 05 02.17560 12 27 54.78 -05 19 27.7 21.3 V 691 – Steward Observatory, Kitt Peak-Spacewatch MPS 162814
2007 09 13.30312 00 17 03.84 +06 25 33.2 19.2 R 699 – Lowell Observatory-LONEOS MPS 216235
2007 09 13.32873 00 17 02.78 +06 25 26.0   699 – Lowell Observatory-LONEOS MPS 216235
2007 09 13.35433 00 17 01.63 +06 25 18.5   699 – Lowell Observatory-LONEOS MPS 216235
2007 09 13.37994 00 17 00.41 +06 25 10.2   699 – Lowell Observatory-LONEOS MPS 216235
2007 09 21.27962 00 10 54.94 +05 39 13.3 19.8   704 – Lincoln Laboratory ETS, New Mexico MPS 217762
2007 09 21.29178 00 10 54.38 +05 39 09.0 20.0   704 – Lincoln Laboratory ETS, New Mexico MPS 217762
2007 09 21.30392 00 10 53.64 +05 39 04.3 19.8   704 – Lincoln Laboratory ETS, New Mexico MPS 217762
2007 09 21.31614 00 10 53.01 +05 38 58.9 20.2   704 – Lincoln Laboratory ETS, New Mexico MPS 217762
2007 10 09.21282 23 56 25.34 +03 37 10.5 20.3   704 – Lincoln Laboratory ETS, New Mexico MPS 218673
2007 10 09.22373 23 56 24.90 +03 37 05.4 20.0   704 – Lincoln Laboratory ETS, New Mexico MPS 218673
2007 10 09.23466 23 56 24.34 +03 37 00.8 19.9   704 – Lincoln Laboratory ETS, New Mexico MPS 218673
2007 10 10.27060 23 55 38.24 +03 29 53.7 19.8 V G96 – Mt. Lemmon Survey MPS 218673
2007 10 10.27794 23 55 37.88 +03 29 50.7 19.7 V G96 – Mt. Lemmon Survey MPS 218673
2007 10 10.28535 23 55 37.56 +03 29 47.9 18.9 V G96 – Mt. Lemmon Survey MPS 218673
2007 10 10.29262 23 55 37.20 +03 29 44.8 19.6 V G96 – Mt. Lemmon Survey MPS 218673
2007 10 12.19829 23 54 15.11 +03 16 50.2 19.4   704 – Lincoln Laboratory ETS, New Mexico MPS 220549
2007 10 12.20933 23 54 14.58 +03 16 46.4 20.0   704 – Lincoln Laboratory ETS, New Mexico MPS 220549
2007 10 12.22036 23 54 14.13 +03 16 41.8 19.8   704 – Lincoln Laboratory ETS, New Mexico MPS 220549
2007 10 12.23140 23 54 13.63 +03 16 37.0 19.8   704 – Lincoln Laboratory ETS, New Mexico MPS 220549
2007 10 12.24268 23 54 13.14 +03 16 32.9 20.1   704 – Lincoln Laboratory ETS, New Mexico MPS 220549
2007 12 05.18490 23 52 25.93 +00 55 28.9 20.7 V G96 – Mt. Lemmon Survey MPS 230848
2007 12 05.19085 23 52 26.18 +00 55 30.2 20.6 V G96 – Mt. Lemmon Survey MPS 230848
2007 12 05.19681 23 52 26.40 +00 55 30.4 20.3 V G96 – Mt. Lemmon Survey MPS 230848
2007 12 05.20280 23 52 26.61 +00 55 31.5 21.0 V G96 – Mt. Lemmon Survey MPS 230848
2008 02 10.09910 01 16 13.47 +08 02 02.1 21.7 V G96 – Mt. Lemmon Survey MPS 239071
2008 02 10.10258 01 16 13.83 +08 02 03.5 22.0 V G96 – Mt. Lemmon Survey MPS 239071
2008 02 10.10603 01 16 14.16 +08 02 05.6 21.0 V G96 – Mt. Lemmon Survey MPS 239071
2008 02 10.10948 01 16 14.44 +08 02 06.8 22.3 V G96 – Mt. Lemmon Survey MPS 239071
2009 02 03.42539 11 05 31.77 +00 01 27.4 19.5 V G96 – Mt. Lemmon Survey MPS 276022
2009 02 03.43028 11 05 31.59 +00 01 28.2 19.9 V G96 – Mt. Lemmon Survey MPS 276022
2009 02 03.43508 11 05 31.45 +00 01 29.0 19.8 V G96 – Mt. Lemmon Survey MPS 276022
2009 02 03.43985 11 05 31.23 +00 01 29.7 19.8 V G96 – Mt. Lemmon Survey MPS 276022
2009 02 03.46562 11 05 30.28 +00 01 34.2 20.4 V 691 – Steward Observatory, Kitt Peak-Spacewatch MPS 276022
2009 02 03.48370 11 05 29.65 +00 01 37.2 20.1 V 691 – Steward Observatory, Kitt Peak-Spacewatch MPS 276022
2009 02 03.50203 11 05 29.01 +00 01 40.6 20.3 V 691 – Steward Observatory, Kitt Peak-Spacewatch MPS 276022
2009 02 03.52307 11 05 28.11 +00 01 43.1 19.7 C H10 – Tzec Maun Observatory, Mayhill MPS 276022
2009 02 03.52751 11 05 28.11 +00 01 45.2 20.2 C H10 – Tzec Maun Observatory, Mayhill MPS 276022
2009 02 03.53179 11 05 27.96 +00 01 45.0 20.2 C H10 – Tzec Maun Observatory, Mayhill MPS 276022
2009 02 19.28155 10 54 08.71 +01 07 28.7 20.5 V 703 – Catalina Sky Survey MPS 277431
2009 02 19.28957 10 54 08.24 +01 07 33.0 19.5 V 703 – Catalina Sky Survey MPS 277431
2009 02 19.29764 10 54 07.81 +01 07 32.8 19.9 V 703 – Catalina Sky Survey MPS 277431
2009 02 19.30563 10 54 07.34 +01 07 37.7 19.6 V 703 – Catalina Sky Survey MPS 277431
2009 02 27.27650 10 47 15.39 +01 53 41.3 19.8   704 – Lincoln Laboratory ETS, New Mexico MPS 279487
2009 02 27.28810 10 47 14.84 +01 53 44.7 19.7   704 – Lincoln Laboratory ETS, New Mexico MPS 279487
2009 02 27.29266 10 47 14.49 +01 53 46.9 19.7 V 703 – Catalina Sky Survey MPS 278448
2009 02 27.30031 10 47 14.08 +01 53 49.7 19.6   704 – Lincoln Laboratory ETS, New Mexico MPS 279487
2009 02 27.30285 10 47 13.92 +01 53 50.8 20.0 V 703 – Catalina Sky Survey MPS 278448
2009 02 27.31135 10 47 13.47 +01 53 53.5 19.5   704 – Lincoln Laboratory ETS, New Mexico MPS 279487
2009 02 27.31304 10 47 13.38 +01 53 54.0 19.4 V 703 – Catalina Sky Survey MPS 278448
2009 02 27.32320 10 47 12.84 +01 53 57.9 19.9 V 703 – Catalina Sky Survey MPS 278448
2009 04 01.20773 10 24 23.40 +05 05 22.2 20.3 V G96 – Mt. Lemmon Survey MPS 283482
2009 04 01.21603 10 24 23.22 +05 05 24.1 20.5 V G96 – Mt. Lemmon Survey MPS 283482
